Regional Weather Roundup
Issued by NWS

Home | Current Version | Previous Version | Text Only | Print | Product List | Glossary Off
Versions: 1 2 3 4 5 6 7 8 9 10 11 12 13 14 15 16 17 18 19 20 21 22 23 24 25 26 27 28 29 30 31 32 33 34 35 36 37 38 39 40 41 42 43 44 45 46 47 48

000
ASUS45 KCYS 172210
RWRWY

WYOMING REGIONAL WEATHER ROUNDUP
NATIONAL WEATHER SERVICE CHEYENNE WY
400 PM MDT FRI APR 17 2015

NOTE:  "FAIR" INDICATES FEW OR NO CLOUDS BELOW 12,000 FEET
WITH NO SIGNIFICANT WEATHER AND/OR OBSTRUCTIONS TO VISIBILITY.

WYZ001-172300-
YELLOWSTONE NATIONAL PARK

CITY           SKY/WX    TMP DP  RH WIND       PRES   REMARKS
LK YELLOWSTONE   N/A     52  11  19 VRB3      30.16F
W YELLOWSTONE  NOT AVBL

$$
WYZ002>013-054>058-071-098>099-172300-
NORTHERN WYOMING

CITY           SKY/WX    TMP DP  RH WIND       PRES   REMARKS
JACKSON        SUNNY     61  12  15 N18       30.06F
CODY           FAIR      57  27  30 CALM      30.11F
GREYBULL       FAIR      63  28  26 NW3       30.07F
WORLAND        FAIR      60  29  30 SW3       30.09F
SHERIDAN       FAIR      62  34  35 NW3       30.10F
BUFFALO        FAIR      59  30  33 VRB5      30.13F
GILLETTE       FAIR      61  34  36 NE8       30.11F
HULETT         FAIR      59  34  38 E10       30.12F
NEWCASTLE      FAIR      52  36  54 SE8       30.14F

$$
WYZ014>020-022>026-101>103-172300-
CENTRAL WYOMING

CITY           SKY/WX    TMP DP  RH WIND       PRES   REMARKS
BIG PINEY      FAIR      60  12  15 E18G28    30.06F
PINEDALE       FAIR      55   9  15 E14       30.08F
DUBOIS         FAIR      52  21  30 SE14      30.12F
LANDER         FAIR      54  28  36 N13       30.10F
RIVERTON       FAIR      57  27  31 NE10      30.11F
CASPER         LGT RAIN  35  34  96 E12       30.14F FOG     WCI  27
DOUGLAS        LGT RAIN  38  35  89 NE8       30.16S FOG     WCI  32

$$
WYZ021-027>030-104>119-172300-
SOUTHERN WYOMING

CITY           SKY/WX    TMP DP  RH WIND       PRES   REMARKS
EVANSTON       CLOUDY    44  34  67 SE14G21   30.11F
KEMMERER       FAIR      50  34  53 S13       30.11F
FORT BRIDGER   MOCLDY    39  39 100 SE15      30.14F WCI  31
ROCK SPRINGS   CLOUDY    38  35  89 NE21G28   30.10F WCI  28
DIXON          MOCLDY    46  32  58 NE29G35   30.00F
RAWLINS        CLOUDY    36  34  92 N13       30.08F WCI  27
SARATOGA       CLOUDY    41  32  70 NE16G26   30.05S
LARAMIE        LGT SNOW  32  30  92 E16       30.05R FOG     WCI  21
CHEYENNE       LGT SNOW  34  32  92 NW8       30.07R FOG     WCI  27
TORRINGTON     CLOUDY    45  42  89 NE25G33   30.02F
PINE BLUFFS    TSTM      36  34  93 W9        30.02R WCI  29

$$


USA.gov is the U.S. government's official web portal to all federal, state and local government web resources and services.